Погода в Пахтакоре

Узбекистан     40°05′46″N   65°48′03″E
темп.,
°C
ветер,
м/с
пор.,
м/с
влажн.,
%
обл.,
%
осадки,
мм/ч
давл.,
гПа
погр.,
м
27 февраля, сб
сб2723:00−2юз222582 0.0 103096
02:00−2зюз1124100 0.0 1029191
05:00−3юз1125100 0.0 102955
08:00−2юз1222100 0.0 1029156
11:00+1ююз231490 0.0 1029788
14:00+5ююз55120 0.0 10281012
17:00+5юз44130 0.0 1027923
20:00+2юз11240 0.0 102922
28 февраля, вс
вс2823:00+1в23210 0.0 102822
02:000вюв34330 0.0 102666
05:000вюв34420 0.0 102536
08:00+1вюв34400 0.0 102488
11:00+8в45280 0.0 1022400
14:00+11всв21220 0.0 1019980
17:00+12св212128 0.0 1018942
20:00+9в233080 0.0 101924
1 марта, пн
пн123:00+7вюв333690 0.0 102026
02:00+6в3445100 0.0 101937
05:00+5в344581 0.0 101939
08:00+6в34400 0.0 101958
11:00+14вюв34220 0.0 1018526
14:00+17ююз710190 0.0 10171128
17:00+18юз710180 0.0 10161651
20:00+12зюз23310 0.0 101925
2 марта, вт
вт223:00+10зюз113450 0.0 102022
02:00+9сз2331100 0.0 102122
05:00+8ююз0138100 0.0 102022
08:00+8в1139100 0.0 102222
11:00+14в2323100 0.0 1021459
14:00+16сз1220100 0.0 10211170
17:00+16зюз2222100 0.0 10201630
20:00+13зсз4732100 0.0 1021172
3 марта, ср
ср323:00+10зюз223996 0.0 102228
02:00+8зсз124551 0.0 102122
05:00+6зсз124771 0.0 102122
08:00+8з224362 0.0 102137
11:00+12зюз123081 0.0 1021720
14:00+14зюз242797 0.0 10191962
17:00+14з443066 0.0 10181582
20:00+11з234127 0.0 101841